User: anonymous   Login
Location: Unspecified
(0.0000°N, 0.0000°E)
Time: 02:28:21
(UTC+02:00)
Language:

AO-7 - Orbit

View from above orbital plane
View from above orbital plane
View from above satellite
View from above satellite

Ground track
Ground track

The orbit data is extracted from the following two-line orbital elements,

1 07530U 74089B   16211.90450053 -.00000027  00000-0  10903-3 0  9996
2 07530 101.5781 181.6267 0011574 226.9548 157.0667 12.53622312908472
Epoch (UTC): 29 July 2016 21:42:28
Eccentricity: 0.0011574
inclination: 101.5781°
perigee height: 1440 km
apogee height: 1458 km
right ascension of ascending node: 181.6267°
argument of perigee: 226.9548°
revolutions per day: 12.53622312
mean anomaly at epoch: 157.0667°
orbit number at epoch: 90847

The dashed part of the orbit path shows where the satellite is in the earth's shadow,  

DLR